QPF
0.03 0.00 0.00 0.00 0.00 0.00 0.00 0.00 0.00 0.01 0.00 0.00 0.00 0.00 0.00 0.00 0.00 0.00 0.00 0.00 0.00 0.00 0.00 0.00 0.01 0.00 0.00 0.00 0.00 0.00 0.01 0.00 0.00 0.00 0.00 0.00 0.00 0.00 0.00 0.00 0.00 0.00 0.00
0.01 0.00 0.00 0.00 0.00 0.00 0.00 0.00 0.00 0.00 0.00 0.00 0.00 0.00 0.00 0.00 0.00 0.00 0.00 0.00 0.00 0.02 0.01 0.00 0.02 0.01 0.00 0.00 0.00 0.00 0.06 0.00 0.00 0.00 0.00 0.00 0.00 0.00 0.00 0.00 0.00 0.00 0.01
0.01 0.00 0.00 0.00 0.00 0.00 0.00 0.00 0.00 0.00 0.00 0.00 0.00 0.00 0.00 0.00 0.00 0.00 0.00 0.00 0.00 0.01 0.02 0.00 0.00 0.00 0.00 0.00 0.00 0.00 0.00 0.00 0.00 0.00 0.00 0.00 0.00 0.00 0.00 0.00 0.00 0.00 0.00
0.00 0.00 0.00 0.00 0.00 0.00 0.00 0.00 0.00 0.00 0.00 0.01 0.01 0.00 0.00 0.00 0.00 0.00 0.00 0.00 0.00 0.00 0.01 0.00 0.00 0.00 0.00 0.00 0.00 0.00 0.00 0.00 0.01 0.05 0.03 0.00 0.00 0.00 0.00 0.03 0.00 0.00 0.00
0.02 0.00 0.00 0.00 0.00 0.00 0.00 0.00 0.00 0.00 0.00 0.00 0.00 0.00 0.00 0.00 0.00 0.00 0.00 0.00 0.00 0.00 0.00 0.00 0.00 0.00 0.00 0.00 0.00 0.00 0.00 0.00 0.06 0.08 0.03 0.00 0.00 0.00 0.00 0.00 0.00 0.00 0.00
0.04 0.01 0.00 0.00 0.00 0.00 0.00 0.00 0.00 0.00 0.00 0.00 0.00 0.01 0.08 0.01 0.00 0.00 0.00 0.00 0.01 0.01 0.00 0.00 0.00 0.00 0.00 0.00 0.00 0.00 0.00 0.00 0.01 0.02 0.00 0.00 0.00 0.00 0.00 0.00 0.00 0.00 0.00
0.03 0.03 0.00 0.00 0.00 0.00 0.00 0.01 0.01 0.00 0.00 0.00 0.00 0.01 0.13 0.13 0.02 0.00 0.00 0.00 0.00 0.02 0.01 0.00 0.00 0.00 0.00 0.00 0.00 0.00 0.00 0.00 0.00 0.00 0.00 0.00 0.00 0.00 0.00 0.00 0.00 0.00 0.00
0.20 0.07 0.00 0.00 0.00 0.00 0.00 0.00 0.00 0.00 0.00 0.00 0.00 0.00 0.03 0.16 0.10 0.00 0.02 0.00 0.01 0.00 0.00 0.00 0.01 0.00 0.00 0.00 0.00 0.00 0.00 0.00 0.00 0.00 0.00 0.00 0.00 0.00 0.00 0.00 0.00 0.00 0.00
0.25 0.20 0.06 0.02 0.00 0.00 0.00 0.00 0.00 0.00 0.00 0.00 0.00 0.00 0.00 0.02 0.02 0.00 0.03 0.01 0.00 0.00 0.00 0.00 0.00 0.01 0.00 0.00 0.00 0.00 0.00 0.00 0.00 0.00 0.00 0.00 0.00 0.00 0.00 0.00 0.00 0.00 0.00
0.95 1.29 0.43 0.14 0.13 0.02 0.00 0.00 0.00 0.00 0.00 0.01 0.02 0.00 0.00 0.00 0.00 0.00 0.01 0.03 0.00 0.00 0.00 0.00 0.00 0.00 0.00 0.00 0.00 0.00 0.00 0.00 0.00 0.00 0.00 0.00 0.00 0.00 0.00 0.00 0.00 0.00 0.00
0.06 0.39 0.17 0.02 0.08 0.01 0.00 0.00 0.01 0.00 0.00 0.02 0.03 0.00 0.00 0.00 0.02 0.00 0.00 0.01 0.00 0.00 0.00 0.00 0.00 0.00 0.00 0.00 0.00 0.00 0.00 0.00 0.00 0.00 0.00 0.00 0.01 0.00 0.00 0.00 0.00 0.00 0.00
0.01 0.04 0.02 0.01 0.00 0.00 0.00 0.00 0.00 0.00 0.00 0.00 0.00 0.00 0.00 0.01 0.03 0.06 0.06 0.01 0.00 0.00 0.00 0.00 0.00 0.00 0.00 0.00 0.00 0.00 0.00 0.00 0.00 0.00 0.00 0.00 0.01 0.00 0.00 0.00 0.00 0.00 0.00
0.00 0.00 0.00 0.00 0.00 0.00 0.00 0.00 0.00 0.00 0.00 0.00 0.00 0.00 0.00 0.00 0.03 0.02 0.09 0.06 0.00 0.00 0.00 0.00 0.00 0.00 0.00 0.00 0.00 0.00 0.00 0.00 0.00 0.00 0.01 0.00 0.00 0.00 0.00 0.00 0.00 0.00 0.00
0.00 0.00 0.00 0.00 0.00 0.00 0.00 0.00 0.01 0.00 0.00 0.00 0.00 0.00 0.01 0.01 0.01 0.01 0.01 0.02 0.00 0.00 0.00 0.00 0.01 0.00 0.00 0.00 0.00 0.00 0.00 0.00 0.00 0.00 0.01 0.02 0.01 0.02 0.02 0.00 0.00 0.00 0.00
0.00 0.00 0.01 0.00 0.00 0.00 0.00 0.00 0.01 0.00 0.00 0.02 0.00 0.01 0.02 0.03 0.05 0.05 0.01 0.00 0.00 0.00 0.01 0.02 0.03 0.07 0.01 0.01 0.04 0.09 0.06 0.00 0.00 0.00 0.00 0.04 0.02 0.06 0.08 0.03 0.00 0.00 0.00
0.00 0.00 0.00 0.00 0.00 0.00 0.00 0.01 0.01 0.02 0.00 0.01 0.07 0.09 0.12 0.07 0.03 0.04 0.03 0.01 0.00 0.00 0.00 0.00 0.02 0.07 0.02 0.04 0.09 0.08 0.05 0.01 0.00 0.00 0.00 0.01 0.03 0.04 0.06 0.06 0.04 0.05 0.06
0.00 0.00 0.00 0.00 0.00 0.00 0.00 0.00 0.00 0.01 0.03 0.05 0.02 0.09 0.04 0.07 0.01 0.00 0.02 0.01 0.01 0.01 0.03 0.01 0.01 0.01 0.00 0.01 0.01 0.00 0.00 0.00 0.00 0.00 0.00 0.00 0.00 0.00 0.01 0.02 0.05 0.06 0.10
0.00 0.00 0.00 0.00 0.00 0.00 0.00 0.00 0.00 0.00 0.01 0.04 0.04 0.06 0.05 0.03 0.00 0.01 0.02 0.13 0.11 0.03 0.04 0.03 0.01 0.00 0.02 0.01 0.00 0.00 0.00 0.00 0.00 0.00 0.00 0.00 0.00 0.00 0.00 0.00 0.02 0.04 0.07
0.00 0.00 0.00 0.00 0.00 0.00 0.00 0.00 0.00 0.00 0.00 0.01 0.01 0.01 0.03 0.06 0.01 0.00 0.03 0.24 0.57 0.14 0.06 0.04 0.01 0.02 0.01 0.01 0.00 0.00 0.00 0.00 0.00 0.00 0.00 0.00 0.00 0.00 0.00 0.00 0.04 0.01 0.06
0.00 0.00 0.00 0.00 0.00 0.00 0.00 0.00 0.00 0.00 0.00 0.00 0.01 0.00 0.01 0.05 0.06 0.03 0.06 0.08 0.20 0.13 0.07 0.02 0.03 0.02 0.01 0.05 0.06 0.05 0.01 0.00 0.00 0.00 0.00 0.02 0.04 0.13 0.16 0.18 0.29 0.12 0.02
0.00 0.00 0.00 0.00 0.00 0.00 0.00 0.00 0.00 0.00 0.00 0.00 0.00 0.01 0.01 0.02 0.12 0.10 0.04 0.05 0.04 0.02 0.02 0.02 0.01 0.02 0.09 0.14 0.14 0.11 0.04 0.02 0.04 0.03 0.02 0.03 0.13 0.16 0.19 0.12 0.20 0.10 0.14
0.00 0.00 0.00 0.00 0.00 0.00 0.00 0.00 0.00 0.00 0.00 0.00 0.00 0.00 0.01 0.03 0.13 0.20 0.14 0.03 0.00 0.00 0.00 0.02 0.01 0.12 0.13 0.15 0.05 0.05 0.03 0.00 0.02 0.06 0.02 0.10 0.18 0.15 0.15 0.18 0.13 0.14 0.31
0.00 0.00 0.00 0.00 0.00 0.00 0.00 0.00 0.00 0.00 0.00 0.03 0.08 0.02 0.00 0.02 0.09 0.21 0.23 0.12 0.00 0.03 0.08 0.00 0.01 0.02 0.01 0.03 0.05 0.04 0.03 0.00 0.01 0.01 0.02 0.11 0.19 0.16 0.16 0.08 0.08 0.08 0.06
0.00 0.00 0.00 0.00 0.00 0.00 0.00 0.00 0.00 0.00 0.01 0.02 0.04 0.01 0.00 0.00 0.01 0.08 0.25 0.23 0.11 0.03 0.01 0.00 0.00 0.01 0.02 0.02 0.06 0.08 0.12 0.05 0.00 0.00 0.01 0.10 0.28 0.16 0.09 0.03 0.01 0.00 0.01
0.00 0.00 0.00 0.00 0.00 0.00 0.00 0.00 0.00 0.00 0.01 0.01 0.01 0.04 0.01 0.00 0.00 0.00 0.17 0.30 0.10 0.02 0.00 0.02 0.07 0.08 0.05 0.04 0.07 0.11 0.17 0.15 0.02 0.00 0.00 0.01 0.05 0.04 0.01 0.00 0.00 0.03 0.04
0.00 0.00 0.00 0.00 0.00 0.00 0.00 0.00 0.00 0.00 0.01 0.00 0.02 0.01 0.00 0.01 0.01 0.00 0.00 0.05 0.05 0.00 0.00 0.00 0.03 0.05 0.08 0.11 0.13 0.09 0.09 0.04 0.01 0.00 0.01 0.00 0.00 0.01 0.01 0.00 0.00 0.00 0.01
MSLP
1011.29 1010.86 1010.88 1011.18 1011.67 1011.98 1012.23 1012.61 1013.07 1013.49 1013.81 1014.02 1014.14 1014.28 1014.32 1014.39 1014.58 1014.88 1015.06 1015.21 1015.34 1015.41 1015.58 1015.80 1016.01 1016.16 1016.20 1016.43 1016.33 1016.66 1016.85 1017.07 1017.16 1017.13 1017.28 1017.39 1017.67 1017.89 1018.10 1018.22 1018.47 1018.69 1018.94
1010.65 1011.07 1011.20 1011.29 1011.66 1012.06 1012.42 1012.66 1013.07 1013.51 1013.87 1014.12 1014.32 1014.48 1014.59 1014.71 1014.91 1015.13 1015.31 1015.39 1015.50 1015.53 1015.78 1016.01 1016.21 1016.19 1016.42 1016.50 1016.50 1016.83 1016.97 1017.16 1017.26 1017.30 1017.43 1017.73 1017.95 1018.06 1017.86 1018.30 1018.68 1018.92 1019.05
1011.07 1011.03 1011.56 1011.92 1012.02 1012.27 1012.50 1012.84 1013.22 1013.54 1013.86 1014.18 1014.44 1014.61 1014.70 1014.83 1015.08 1015.31 1015.45 1015.58 1015.64 1015.80 1015.98 1016.17 1016.24 1016.27 1016.55 1016.49 1016.59 1016.93 1017.17 1017.30 1017.42 1017.60 1017.77 1018.04 1018.17 1018.32 1018.45 1018.61 1018.81 1019.08 1019.26
1010.89 1011.37 1011.63 1012.23 1012.56 1012.74 1012.92 1013.10 1013.30 1013.59 1013.87 1014.19 1014.51 1014.66 1014.80 1014.88 1015.17 1015.44 1015.56 1015.67 1015.80 1015.94 1016.26 1016.31 1016.34 1016.44 1016.58 1016.59 1016.73 1016.96 1017.26 1017.44 1017.62 1017.73 1017.95 1018.13 1018.18 1018.59 1018.72 1018.86 1019.04 1019.22 1019.47
1011.29 1011.52 1011.64 1011.84 1012.45 1013.11 1013.40 1013.50 1013.58 1013.74 1013.95 1014.17 1014.42 1014.69 1014.95 1015.09 1015.25 1015.42 1015.63 1015.77 1015.94 1016.12 1016.36 1016.50 1016.52 1016.69 1016.69 1016.71 1016.79 1017.02 1017.36 1017.57 1017.59 1017.59 1017.83 1018.24 1018.32 1018.74 1018.92 1019.09 1019.22 1019.36 1019.51
1010.83 1011.35 1011.67 1012.05 1012.35 1012.71 1013.51 1013.88 1013.87 1014.03 1014.08 1014.28 1014.51 1014.80 1015.10 1015.26 1015.33 1015.43 1015.64 1015.89 1016.11 1016.29 1016.44 1016.61 1016.76 1016.84 1016.91 1016.91 1016.96 1017.09 1017.29 1017.59 1017.65 1017.74 1017.86 1018.27 1018.36 1018.67 1018.95 1019.08 1019.33 1019.54 1019.69
1011.49 1011.57 1012.07 1012.19 1012.35 1012.79 1013.10 1013.96 1014.16 1014.27 1014.32 1014.49 1014.60 1014.76 1015.24 1015.49 1015.50 1015.63 1015.74 1015.94 1016.18 1016.38 1016.50 1016.71 1016.88 1017.02 1017.09 1017.09 1017.08 1017.26 1017.40 1017.42 1017.43 1017.87 1017.95 1018.03 1018.38 1018.62 1018.91 1019.24 1019.48 1019.69 1019.81
1010.86 1012.39 1012.03 1012.54 1012.53 1012.76 1013.24 1013.41 1014.25 1014.39 1014.43 1014.59 1014.78 1014.83 1015.05 1015.50 1015.71 1015.79 1015.87 1016.04 1016.26 1016.40 1016.54 1016.78 1016.87 1017.08 1017.20 1017.20 1017.15 1017.33 1017.46 1017.47 1017.48 1017.58 1017.92 1018.00 1018.31 1018.55 1018.86 1019.28 1019.60 1019.79 1019.92
1010.48 1012.53 1012.34 1012.80 1012.58 1012.88 1013.11 1013.42 1013.98 1014.43 1014.51 1014.52 1014.75 1014.94 1015.11 1015.40 1015.69 1015.86 1015.98 1016.09 1016.31 1016.50 1016.67 1016.79 1016.90 1017.04 1017.19 1017.25 1017.16 1017.35 1017.41 1017.41 1017.56 1017.97 1018.12 1018.09 1018.19 1018.37 1018.72 1019.17 1019.57 1019.89 1020.07
1011.76 1010.98 1011.69 1012.37 1013.02 1012.85 1013.15 1013.38 1013.72 1014.22 1014.50 1014.59 1014.70 1014.94 1015.19 1015.34 1015.57 1015.79 1016.01 1016.18 1016.35 1016.57 1016.69 1016.75 1016.90 1017.07 1017.23 1017.26 1017.19 1017.32 1017.48 1017.42 1017.45 1017.57 1017.76 1018.12 1018.24 1018.40 1018.51 1018.97 1019.40 1019.78 1020.06
1012.49 1011.86 1012.23 1012.18 1012.39 1012.85 1013.12 1013.28 1013.60 1013.94 1014.35 1014.55 1014.65 1014.81 1015.06 1015.38 1015.57 1015.74 1015.91 1016.12 1016.27 1016.48 1016.65 1016.79 1016.90 1017.03 1017.13 1017.18 1017.17 1017.26 1017.43 1017.57 1017.33 1017.36 1017.60 1017.82 1018.09 1018.40 1018.65 1018.88 1019.34 1019.69 1019.99
1012.62 1012.40 1012.27 1012.40 1012.42 1012.63 1013.03 1013.24 1013.64 1013.81 1014.19 1014.43 1014.61 1014.78 1014.99 1015.25 1015.47 1015.58 1015.76 1015.91 1016.09 1016.31 1016.48 1016.69 1016.84 1016.97 1017.07 1017.22 1017.23 1017.18 1017.39 1017.52 1017.42 1017.41 1017.59 1017.95 1018.13 1018.37 1018.67 1018.83 1019.24 1019.55 1019.80
1011.60 1012.18 1012.25 1012.58 1012.42 1012.51 1012.90 1013.40 1013.75 1013.77 1014.02 1014.26 1014.37 1014.67 1014.85 1015.15 1015.26 1015.25 1015.67 1015.96 1016.07 1016.17 1016.36 1016.52 1016.66 1016.85 1017.01 1017.21 1017.26 1017.17 1017.06 1017.41 1017.29 1017.23 1017.37 1017.54 1017.85 1018.24 1018.47 1018.50 1018.87 1019.29 1019.60
1011.40 1011.72 1012.07 1012.17 1012.56 1012.65 1012.92 1013.39 1013.70 1013.78 1013.95 1014.17 1014.24 1014.45 1014.84 1015.19 1015.33 1015.41 1015.45 1015.63 1015.83 1015.98 1016.21 1016.42 1016.55 1016.67 1016.79 1016.83 1016.94 1017.04 1016.97 1017.02 1017.08 1017.12 1017.18 1017.60 1017.81 1018.03 1018.30 1018.14 1018.40 1018.72 1018.99
1010.88 1011.54 1011.85 1012.09 1012.42 1012.74 1013.00 1013.12 1013.29 1013.72 1014.05 1013.94 1013.95 1014.13 1014.41 1014.90 1015.36 1015.28 1015.23 1015.25 1015.36 1015.58 1015.83 1016.17 1016.36 1016.52 1016.66 1016.65 1016.66 1016.66 1016.72 1016.72 1016.63 1016.94 1017.16 1017.37 1017.62 1017.87 1018.08 1018.27 1018.03 1018.26 1018.66
1010.25 1010.90 1011.36 1011.73 1011.91 1012.27 1012.74 1012.93 1013.08 1013.33 1013.61 1013.67 1013.76 1013.87 1014.05 1014.39 1014.69 1014.83 1015.06 1015.02 1015.00 1015.07 1015.30 1015.47 1015.87 1016.09 1016.31 1016.22 1016.55 1016.66 1016.60 1016.47 1016.40 1016.58 1017.03 1016.80 1017.09 1017.36 1017.63 1017.61 1017.86 1017.98 1018.19
1009.76 1010.49 1011.05 1011.35 1011.64 1012.18 1012.58 1012.74 1012.84 1013.05 1013.17 1013.40 1013.63 1013.70 1013.76 1013.99 1014.13 1014.35 1014.73 1014.86 1014.61 1014.92 1014.96 1015.17 1015.39 1015.69 1016.09 1015.96 1016.23 1016.07 1016.14 1016.00 1015.85 1016.06 1016.41 1016.77 1016.80 1016.97 1017.01 1017.28 1017.53 1017.66 1017.94
1009.45 1010.14 1010.64 1011.16 1011.48 1011.80 1012.17 1012.46 1012.53 1012.74 1012.89 1013.08 1013.33 1013.42 1013.29 1013.52 1013.71 1013.90 1014.80 1015.58 1015.18 1015.14 1015.24 1015.26 1015.33 1015.70 1016.02 1016.21 1016.11 1015.94 1015.90 1015.62 1015.59 1015.82 1015.89 1016.26 1016.36 1016.49 1016.67 1016.89 1017.04 1017.27 1017.49
1009.02 1009.78 1010.47 1010.93 1011.49 1011.83 1012.12 1012.35 1012.48 1012.63 1012.89 1012.92 1012.98 1013.09 1013.09 1013.19 1013.37 1013.74 1014.64 1014.93 1014.90 1015.54 1015.32 1015.09 1015.14 1015.40 1015.99 1016.14 1016.12 1015.96 1015.82 1015.64 1015.67 1015.49 1015.57 1015.59 1016.01 1016.20 1016.25 1016.21 1016.73 1016.96 1017.00
1008.77 1009.46 1010.06 1010.79 1011.32 1011.76 1012.11 1012.23 1012.53 1012.67 1012.81 1012.70 1012.94 1012.93 1013.07 1013.12 1013.20 1013.57 1014.44 1014.79 1015.23 1016.07 1015.49 1014.98 1014.97 1015.33 1015.57 1015.91 1016.14 1016.09 1015.77 1015.56 1015.63 1015.74 1015.76 1015.74 1015.90 1015.83 1016.17 1016.52 1017.03 1017.20 1017.04
1008.69 1009.42 1010.04 1010.64 1011.18 1011.52 1012.03 1012.33 1012.51 1012.65 1012.65 1012.74 1012.66 1012.73 1012.94 1013.07 1013.03 1013.27 1013.90 1014.81 1014.86 1015.35 1015.00 1014.84 1014.98 1015.34 1015.72 1015.97 1016.43 1016.41 1015.96 1015.59 1015.64 1015.48 1015.32 1015.71 1015.93 1015.65 1015.61 1016.16 1017.04 1017.18 1017.00
1008.62 1009.31 1009.89 1010.42 1010.95 1011.30 1011.58 1011.89 1011.99 1012.11 1012.24 1012.28 1012.41 1012.48 1012.63 1012.80 1012.83 1012.92 1013.45 1013.92 1014.15 1014.39 1014.61 1014.73 1014.90 1015.40 1015.70 1015.86 1016.41 1016.70 1016.52 1016.07 1015.76 1016.06 1015.97 1016.09 1016.11 1015.60 1015.92 1016.32 1016.28 1016.30 1016.59
1008.25 1009.06 1009.56 1010.12 1010.61 1010.98 1011.16 1011.56 1011.79 1011.87 1012.16 1012.28 1012.40 1012.40 1012.43 1012.32 1012.39 1012.58 1012.84 1013.45 1013.72 1014.00 1014.25 1014.49 1014.80 1015.30 1015.76 1015.81 1015.89 1016.29 1016.60 1016.54 1016.46 1016.37 1016.39 1016.34 1016.45 1016.51 1016.29 1016.30 1016.22 1016.18 1015.99
1007.70 1008.61 1009.34 1009.91 1010.31 1010.62 1010.89 1011.22 1011.55 1011.90 1012.35 1012.20 1012.19 1012.05 1012.21 1012.02 1012.18 1012.39 1012.54 1012.99 1013.74 1014.02 1014.33 1014.54 1014.70 1015.00 1015.50 1015.70 1015.71 1015.62 1015.74 1016.09 1016.60 1017.02 1016.74 1016.66 1016.34 1016.53 1016.74 1016.40 1016.53 1016.23 1016.02
1007.27 1008.16 1008.91 1009.51 1009.96 1010.17 1010.42 1010.80 1011.26 1011.60 1011.84 1011.91 1012.02 1011.98 1012.10 1012.11 1012.12 1012.26 1012.58 1012.89 1013.46 1013.85 1014.20 1014.47 1014.63 1014.75 1015.01 1015.29 1015.39 1015.47 1015.63 1015.87 1016.14 1016.68 1016.99 1016.88 1016.77 1016.92 1017.08 1016.90 1016.67 1016.34 1015.93
1006.84 1007.62 1008.50 1009.24 1009.66 1009.85 1010.06 1010.41 1010.91 1011.22 1011.49 1011.92 1012.07 1012.17 1012.12 1012.15 1012.35 1012.62 1012.70 1012.95 1013.27 1013.74 1014.03 1014.26 1014.37 1014.46 1014.48 1014.53 1014.70 1014.82 1015.03 1015.38 1015.75 1016.17 1016.51 1016.59 1016.77 1017.13 1017.39 1017.27 1016.97 1016.41 1016.27
Thickness
5778 5786 5784 5781 5776 5774 5774 5771 5769 5766 5764 5763 5763 5762 5764 5765 5765 5765 5763 5762 5762 5762 5762 5761 5761 5763 5763 5761 5762 5759 5759 5758 5759 5760 5758 5757 5756 5754 5754 5753 5752 5751 5749
5784 5783 5782 5780 5776 5773 5772 5772 5769 5767 5764 5763 5762 5762 5763 5763 5763 5762 5762 5762 5762 5762 5761 5760 5761 5763 5763 5762 5763 5760 5760 5759 5760 5760 5759 5757 5755 5755 5757 5754 5752 5751 5750
5780 5783 5778 5774 5774 5772 5770 5769 5767 5766 5765 5763 5762 5762 5762 5762 5762 5761 5761 5761 5762 5761 5760 5760 5762 5763 5762 5763 5763 5761 5761 5761 5760 5759 5758 5757 5756 5754 5754 5754 5753 5752 5751
5782 5778 5777 5771 5769 5767 5766 5766 5766 5766 5765 5763 5762 5762 5762 5762 5761 5760 5761 5761 5762 5762 5759 5759 5761 5762 5762 5763 5763 5763 5762 5760 5760 5759 5758 5757 5758 5754 5753 5753 5752 5752 5751
5778 5777 5777 5775 5771 5764 5760 5761 5763 5763 5763 5763 5762 5761 5759 5759 5761 5761 5761 5762 5762 5760 5759 5759 5761 5760 5762 5763 5764 5764 5762 5761 5761 5762 5761 5758 5759 5755 5754 5753 5752 5751 5751
5785 5779 5777 5773 5770 5769 5759 5755 5758 5760 5762 5762 5761 5759 5758 5758 5760 5761 5761 5761 5761 5760 5759 5759 5759 5760 5759 5761 5764 5765 5765 5763 5763 5763 5762 5760 5760 5757 5755 5754 5753 5751 5751
5780 5779 5771 5768 5770 5766 5765 5755 5755 5757 5760 5761 5761 5760 5757 5756 5758 5759 5760 5760 5760 5761 5760 5759 5759 5759 5758 5760 5764 5765 5765 5765 5765 5764 5765 5765 5762 5759 5757 5755 5753 5752 5751
5784 5774 5770 5762 5765 5765 5760 5762 5753 5755 5759 5760 5759 5759 5758 5754 5754 5758 5759 5759 5759 5760 5760 5758 5759 5758 5758 5760 5763 5764 5764 5765 5765 5766 5766 5765 5763 5761 5759 5756 5754 5752 5752
5764 5762 5760 5753 5760 5762 5761 5760 5757 5754 5757 5760 5760 5759 5758 5756 5755 5756 5757 5758 5758 5758 5758 5759 5760 5759 5759 5760 5763 5764 5765 5765 5766 5763 5764 5767 5764 5763 5761 5758 5755 5752 5751
5780 5779 5768 5754 5754 5761 5760 5760 5760 5757 5756 5759 5760 5759 5758 5757 5756 5755 5756 5757 5758 5757 5758 5759 5760 5759 5760 5761 5764 5764 5764 5766 5768 5768 5766 5766 5766 5763 5763 5760 5757 5754 5752
5777 5775 5769 5766 5765 5762 5762 5762 5760 5760 5758 5759 5761 5761 5759 5757 5756 5755 5757 5757 5758 5758 5758 5758 5759 5760 5761 5763 5765 5766 5765 5766 5768 5769 5769 5768 5767 5765 5763 5761 5757 5755 5752
5774 5775 5773 5770 5766 5766 5763 5764 5761 5761 5760 5761 5762 5762 5761 5759 5759 5758 5757 5756 5758 5758 5759 5759 5759 5760 5762 5763 5765 5767 5767 5767 5768 5768 5769 5766 5766 5764 5762 5760 5756 5754 5753
5790 5782 5776 5770 5768 5768 5765 5762 5761 5762 5761 5762 5763 5762 5761 5759 5760 5761 5759 5757 5757 5758 5759 5760 5761 5762 5763 5763 5765 5767 5769 5768 5770 5770 5770 5770 5768 5764 5762 5762 5759 5755 5753
5786 5786 5783 5781 5775 5771 5767 5764 5760 5762 5761 5761 5763 5762 5760 5758 5758 5760 5761 5761 5759 5759 5760 5761 5763 5763 5764 5765 5766 5767 5768 5769 5770 5771 5771 5768 5766 5765 5763 5765 5761 5759 5757
5795 5790 5788 5785 5778 5773 5770 5767 5765 5762 5758 5760 5763 5764 5762 5760 5758 5758 5761 5763 5762 5762 5762 5762 5762 5763 5764 5766 5767 5768 5768 5769 5772 5770 5770 5768 5766 5764 5763 5761 5764 5761 5756
5804 5797 5794 5789 5785 5780 5774 5771 5767 5762 5760 5763 5764 5763 5763 5762 5761 5760 5760 5763 5765 5765 5765 5765 5764 5764 5765 5767 5765 5765 5768 5769 5771 5771 5767 5769 5767 5766 5764 5765 5761 5759 5757
5808 5802 5797 5794 5791 5783 5776 5771 5766 5764 5764 5763 5762 5763 5763 5763 5762 5763 5762 5763 5765 5766 5766 5766 5766 5764 5763 5766 5765 5767 5768 5771 5772 5771 5769 5767 5768 5767 5768 5764 5761 5760 5758
5815 5805 5801 5798 5793 5788 5783 5776 5772 5767 5766 5763 5761 5762 5764 5763 5764 5764 5757 5750 5756 5757 5759 5765 5764 5762 5761 5760 5762 5766 5768 5770 5772 5770 5770 5769 5768 5766 5765 5761 5759 5759 5757
5819 5810 5802 5796 5790 5786 5782 5778 5772 5766 5763 5763 5761 5760 5762 5763 5762 5761 5749 5754 5754 5751 5755 5761 5763 5762 5758 5757 5759 5763 5767 5768 5767 5766 5768 5770 5768 5764 5764 5764 5758 5756 5756
5820 5814 5806 5798 5790 5785 5781 5777 5772 5767 5762 5761 5760 5760 5757 5759 5759 5757 5747 5750 5744 5744 5751 5760 5762 5760 5759 5757 5757 5758 5763 5766 5765 5764 5765 5764 5763 5765 5762 5759 5745 5747 5750
5818 5809 5802 5796 5789 5785 5778 5773 5768 5764 5762 5758 5758 5755 5753 5753 5755 5755 5751 5742 5745 5744 5751 5759 5758 5755 5753 5754 5749 5750 5756 5761 5760 5763 5764 5760 5758 5763 5761 5755 5746 5746 5748
5817 5809 5803 5797 5790 5786 5782 5777 5773 5768 5764 5761 5757 5755 5754 5753 5752 5753 5750 5750 5750 5750 5752 5754 5754 5749 5749 5750 5742 5741 5737 5746 5754 5753 5757 5755 5753 5757 5754 5749 5750 5747 5748
5818 5811 5805 5798 5792 5788 5785 5780 5775 5771 5766 5760 5756 5754 5754 5755 5754 5753 5750 5747 5748 5750 5749 5750 5748 5745 5740 5745 5746 5739 5729 5729 5738 5746 5746 5747 5746 5744 5744 5744 5745 5745 5749
5820 5814 5806 5799 5795 5791 5787 5780 5773 5764 5756 5756 5755 5755 5753 5753 5752 5750 5749 5745 5742 5743 5744 5745 5746 5744 5741 5738 5742 5745 5745 5741 5730 5726 5736 5739 5742 5739 5736 5736 5739 5742 5745
5823 5815 5808 5801 5796 5794 5789 5783 5774 5765 5761 5760 5757 5754 5751 5751 5750 5748 5746 5743 5739 5741 5741 5741 5742 5741 5741 5738 5738 5739 5737 5737 5734 5729 5722 5728 5733 5732 5732 5733 5731 5737 5742
5825 5818 5810 5801 5796 5794 5790 5784 5777 5770 5764 5757 5753 5749 5749 5747 5745 5744 5744 5742 5740 5739 5738 5738 5739 5739 5740 5741 5741 5740 5737 5733 5731 5729 5726 5725 5722 5720 5721 5722 5726 5732 5733